sat.trackr.live / text

‹ back to catalog

DSX

NORAD 44344 · 2019-036F

PAYLOAD ACTIVE UNKNOWN

§ Identity

Operator
Country
US
Launch date
2019-06-25
Launch site
AFETR
Launch vehicle
Mass (kg)
RCS (m²)

External: N2YO · Heavens-Above · Gunter

§ Orbital elements

Epoch: 2026-09-17T09:27:07.583328Z

Period
316.92 min
Inclination
42.3027°
Eccentricity
0.1967353
Mean motion
4.54371400 rev/d
Perigee alt
5,990.4 km
Apogee alt
12,049.1 km
Semi-major
15,397.9 km
B*
0.0000e+0
RAAN
316.9956°
Arg perigee
55.3795°
Mean anomaly
321.6933°
Rev number
11,998

§ Raw data

DSX1 44344U 19036F   26260.39383777 -.00000046  00000+0  00000+0 0  99902 44344  42.3027 316.9956 1967353  55.3795 321.6933  4.54371400119989

JSON: /api/v1/satellites/44344 · /tle

For live sub-satellite position, see the globe view (requires WebGL).

§ Visibility from observer

Set your observer location to see the next 7 days of passes ≥ 10°. The values pass through the URL so the page stays shareable.

No JS? Fill the form by hand. The geolocation button needs JavaScript.